TimeCDT,TemperatureF,Dew PointF,Humidity,Sea Level PressureIn,VisibilityMPH,Wind Direction,Wind SpeedMPH,Gust SpeedMPH,PrecipitationIn,Events,Conditions,WindDirDegrees,DateUTC
12:13 AM,41.0,30.2,65,30.06,10.0,WSW,8.1,-,N/A,,Clear,240,2014-05-17 05:13:00
12:33 AM,41.0,28.4,61,30.06,10.0,WSW,8.1,-,N/A,,Clear,240,2014-05-17 05:33:00
12:53 AM,39.2,28.4,65,30.06,10.0,WSW,8.1,-,N/A,,Clear,240,2014-05-17 05:53:00
1:14 AM,39.2,28.4,65,30.06,10.0,WSW,5.8,-,N/A,,Clear,240,2014-05-17 06:14:00
1:33 AM,39.2,28.4,65,30.05,10.0,SW,6.9,-,N/A,,Clear,230,2014-05-17 06:33:00
1:53 AM,39.2,26.6,61,30.05,10.0,WSW,8.1,-,N/A,,Clear,240,2014-05-17 06:53:00
2:14 AM,39.2,26.6,61,30.06,10.0,SW,8.1,-,N/A,,Clear,230,2014-05-17 07:14:00
2:33 AM,37.4,28.4,70,30.05,10.0,SW,6.9,-,N/A,,Clear,230,2014-05-17 07:33:00
2:53 AM,37.4,26.6,65,30.05,10.0,SW,6.9,-,N/A,,Clear,230,2014-05-17 07:53:00
3:14 AM,37.4,28.4,70,30.05,10.0,SW,8.1,-,N/A,,Clear,230,2014-05-17 08:14:00
3:33 AM,35.6,28.4,75,30.05,10.0,SW,9.2,-,N/A,,Clear,230,2014-05-17 08:33:00
3:53 AM,37.4,28.4,70,30.05,10.0,WSW,9.2,-,N/A,,Clear,240,2014-05-17 08:53:00
4:14 AM,37.4,26.6,65,30.04,10.0,WSW,9.2,-,N/A,,Clear,240,2014-05-17 09:14:00
4:33 AM,37.4,26.6,65,30.04,10.0,WSW,6.9,-,N/A,,Clear,240,2014-05-17 09:33:00
4:53 AM,35.6,26.6,70,30.04,10.0,SW,6.9,-,N/A,,Clear,230,2014-05-17 09:53:00
5:13 AM,35.6,26.6,70,30.03,10.0,SW,6.9,-,N/A,,Clear,230,2014-05-17 10:13:00
5:33 AM,35.6,26.6,70,30.03,10.0,SW,8.1,-,N/A,,Clear,220,2014-05-17 10:33:00
5:54 AM,35.6,26.6,70,30.03,10.0,SSW,6.9,-,N/A,,Clear,210,2014-05-17 10:54:00
6:13 AM,35.6,26.6,70,30.03,10.0,SSW,6.9,-,N/A,,Clear,210,2014-05-17 11:13:00
6:33 AM,35.6,28.4,75,30.03,10.0,SSW,6.9,-,N/A,,Clear,210,2014-05-17 11:33:00
6:54 AM,37.4,30.2,75,30.03,10.0,SW,5.8,-,N/A,,Clear,220,2014-05-17 11:54:00
7:13 AM,39.2,30.2,70,30.03,10.0,SSW,5.8,-,N/A,,Clear,210,2014-05-17 12:13:00
7:33 AM,42.8,30.2,61,30.03,10.0,SW,3.5,-,N/A,,Clear,230,2014-05-17 12:33:00
7:54 AM,44.6,32.0,61,30.03,10.0,SW,8.1,-,N/A,,Clear,230,2014-05-17 12:54:00
8:13 AM,46.4,30.2,53,30.03,10.0,WSW,8.1,-,N/A,,Clear,240,2014-05-17 13:13:00
8:33 AM,46.4,30.2,53,30.03,10.0,WSW,5.8,-,N/A,,Clear,240,2014-05-17 13:33:00
8:54 AM,48.2,30.2,50,30.03,10.0,West,5.8,-,N/A,,Clear,260,2014-05-17 13:54:00
9:13 AM,48.2,32.0,54,30.03,10.0,WSW,5.8,-,N/A,,Clear,240,2014-05-17 14:13:00
9:33 AM,50.0,33.8,54,30.03,10.0,West,4.6,-,N/A,,Clear,270,2014-05-17 14:33:00
9:54 AM,51.8,33.8,50,30.03,10.0,WSW,4.6,-,N/A,,Clear,240,2014-05-17 14:54:00
10:13 AM,53.6,33.8,47,30.03,10.0,West,3.5,-,N/A,,Clear,260,2014-05-17 15:13:00
10:33 AM,55.4,33.8,44,30.03,10.0,West,4.6,-,N/A,,Clear,270,2014-05-17 15:33:00
10:54 AM,57.2,33.8,41,30.03,10.0,West,5.8,-,N/A,,Clear,280,2014-05-17 15:54:00
11:13 AM,59.0,33.8,39,30.03,10.0,WSW,8.1,-,N/A,,Clear,250,2014-05-17 16:13:00
11:33 AM,60.8,30.2,31,30.03,10.0,WSW,6.9,-,N/A,,Clear,250,2014-05-17 16:33:00
11:53 AM,60.8,30.2,31,30.03,10.0,WSW,6.9,-,N/A,,Clear,250,2014-05-17 16:53:00
12:13 PM,62.6,30.2,30,30.03,10.0,West,5.8,-,N/A,,Clear,280,2014-05-17 17:13:00
12:34 PM,62.6,28.4,27,30.02,10.0,SW,8.1,-,N/A,,Unknown,220,2014-05-17 17:34:00
12:53 PM,64.4,28.4,26,30.01,10.0,West,13.8,-,N/A,,Unknown,280,2014-05-17 17:53:00
1:13 PM,64.4,28.4,26,30.01,10.0,West,11.5,-,N/A,,Clear,280,2014-05-17 18:13:00
1:34 PM,64.4,28.4,26,30.01,10.0,WNW,9.2,18.4,N/A,,Clear,290,2014-05-17 18:34:00
1:53 PM,64.4,28.4,26,30.00,10.0,West,9.2,-,N/A,,Clear,270,2014-05-17 18:53:00
2:13 PM,64.4,28.4,26,30.00,10.0,West,12.7,20.7,N/A,,Clear,260,2014-05-17 19:13:00
2:33 PM,66.2,26.6,23,30.00,10.0,WNW,9.2,20.7,N/A,,Clear,290,2014-05-17 19:33:00
2:53 PM,66.2,28.4,24,29.99,10.0,West,9.2,15.0,N/A,,Clear,260,2014-05-17 19:53:00
3:13 PM,66.2,28.4,24,29.99,10.0,West,9.2,19.6,N/A,,Clear,280,2014-05-17 20:13:00
3:33 PM,66.2,28.4,24,29.99,10.0,WNW,11.5,26.5,N/A,,Clear,290,2014-05-17 20:33:00
3:53 PM,66.2,28.4,24,29.98,10.0,West,18.4,23.0,N/A,,Clear,280,2014-05-17 20:53:00
4:13 PM,66.2,28.4,24,29.98,10.0,West,13.8,19.6,N/A,,Clear,260,2014-05-17 21:13:00
4:33 PM,68.0,28.4,23,29.98,10.0,West,15.0,-,N/A,,Clear,280,2014-05-17 21:33:00
4:53 PM,66.2,28.4,24,29.98,10.0,WNW,6.9,-,N/A,,Clear,290,2014-05-17 21:53:00
5:13 PM,66.2,28.4,24,29.98,10.0,WNW,13.8,-,N/A,,Clear,300,2014-05-17 22:13:00
5:33 PM,66.2,28.4,24,29.98,10.0,WNW,11.5,18.4,N/A,,Clear,300,2014-05-17 22:33:00
5:53 PM,64.4,28.4,26,29.97,10.0,West,13.8,-,N/A,,Scattered Clouds,270,2014-05-17 22:53:00
6:13 PM,64.4,28.4,26,29.98,10.0,West,10.4,18.4,N/A,,Scattered Clouds,280,2014-05-17 23:13:00
6:33 PM,64.4,28.4,26,29.98,10.0,West,9.2,-,N/A,,Scattered Clouds,280,2014-05-17 23:33:00
6:53 PM,64.4,28.4,26,29.98,10.0,West,5.8,-,N/A,,Scattered Clouds,270,2014-05-17 23:53:00
7:14 PM,64.4,28.4,26,29.98,10.0,West,10.4,17.3,N/A,,Scattered Clouds,280,2014-05-18 00:14:00
7:33 PM,64.4,28.4,26,29.98,10.0,WNW,8.1,-,N/A,,Mostly Cloudy,300,2014-05-18 00:33:00
7:53 PM,62.6,30.2,30,29.98,10.0,WNW,6.9,-,N/A,,Scattered Clouds,300,2014-05-18 00:53:00
8:14 PM,60.8,30.2,31,29.98,10.0,West,3.5,-,N/A,,Scattered Clouds,280,2014-05-18 01:14:00
8:33 PM,60.8,28.4,29,29.99,10.0,WSW,3.5,-,N/A,,Scattered Clouds,250,2014-05-18 01:33:00
8:53 PM,59.0,28.4,31,29.99,10.0,SW,3.5,-,N/A,,Scattered Clouds,220,2014-05-18 01:53:00
9:14 PM,55.4,30.2,38,29.99,7.0,SSW,6.9,-,N/A,,Scattered Clouds,210,2014-05-18 02:14:00
9:33 PM,55.4,28.4,36,29.99,7.0,SSW,5.8,-,N/A,,Clear,210,2014-05-18 02:33:00
9:53 PM,55.4,28.4,36,29.99,10.0,SW,6.9,-,N/A,,Clear,220,2014-05-18 02:53:00
10:14 PM,53.6,30.2,41,30.00,10.0,SW,5.8,-,N/A,,Clear,230,2014-05-18 03:14:00
10:33 PM,53.6,28.4,38,30.00,10.0,SW,4.6,-,N/A,,Clear,220,2014-05-18 03:33:00
10:53 PM,53.6,28.4,38,30.00,10.0,SW,5.8,-,N/A,,Clear,220,2014-05-18 03:53:00
11:14 PM,51.8,28.4,41,30.00,10.0,SW,4.6,-,N/A,,Clear,220,2014-05-18 04:14:00
11:33 PM,51.8,28.4,41,30.00,10.0,SW,5.8,-,N/A,,Clear,220,2014-05-18 04:33:00
11:53 PM,51.8,28.4,41,30.01,10.0,SW,5.8,-,N/A,,Clear,220,2014-05-18 04:53:00